| time (UTC) | temp C | wind direction | speed KPH | gust KPH | rain 1hr cm | rain 24hr cm | rain mn cm | humidity % | barometer mb |
| 20260905135610 | 24 | 84 | 14.5 | 25.7 | 0.03 | 0.05 | 0.03 | 83 | 1010.9 |
| 20260905134841 | 24 | 95 | 9.7 | 30.6 | 0.03 | 0.05 | 0.03 | 86 | 1011.0 |
| 20260905134340 | 24 | 91 | 16.1 | 33.8 | 0.00 | 0.05 | 0.00 | 84 | 1011.1 |
| 20260905134111 | 24 | 59 | 9.7 | 33.8 | 0.00 | 0.05 | 0.00 | 84 | 1011.2 |
| 20260905133341 | 24 | 72 | 6.4 | 27.4 | 0.00 | 0.05 | 0.00 | 84 | 1011.3 |
| 20260905132840 | 24 | 58 | 9.7 | 30.6 | 0.00 | 0.05 | 0.00 | 84 | 1011.3 |
| 20260905132339 | 24 | 68 | 12.9 | 32.2 | 0.00 | 0.05 | 0.00 | 84 | 1011.2 |
| 20260905132111 | 24 | 43 | 12.9 | 32.2 | 0.00 | 0.05 | 0.00 | 84 | 1011.1 |
| 20260905131340 | 24 | 64 | 11.3 | 27.4 | 0.00 | 0.05 | 0.00 | 85 | 1011.3 |
| 20260905130839 | 24 | 69 | 14.5 | 32.2 | 0.00 | 0.05 | 0.00 | 85 | 1011.4 |
| 20260905130327 | 24 | 55 | 9.7 | 32.2 | 0.00 | 0.05 | 0.00 | 83 | 1011.3 |
| 20260905125827 | 25 | 62 | 14.5 | 32.2 | 0.00 | 0.05 | 0.00 | 83 | 1011.4 |
| 20260905125559 | 25 | 91 | 17.7 | 30.6 | 0.00 | 0.05 | 0.00 | 81 | 1011.3 |
| 20260905125434 | 25 | 60 | 14.5 | 32.2 | 0.00 | 0.05 | 0.00 | 82 | 1011.2 |
| 20260905124558 | 25 | 67 | 16.1 | 32.2 | 0.00 | 0.05 | 0.00 | 81 | 1011.4 |
| 20260905123829 | 25 | 85 | 12.9 | 32.2 | 0.00 | 0.05 | 0.00 | 81 | 1011.4 |
| 20260905123327 | 25 | 40 | 16.1 | 32.2 | 0.00 | 0.05 | 0.00 | 80 | 1011.2 |
| 20260905122828 | 25 | 73 | 12.9 | 32.2 | 0.00 | 0.05 | 0.00 | 81 | 1011.3 |
| 20260905122328 | 25 | 63 | 16.1 | 32.2 | 0.00 | 0.05 | 0.00 | 81 | 1011.5 |
| 20260905122058 | 25 | 96 | 14.5 | 32.2 | 0.00 | 0.05 | 0.00 | 81 | 1011.3 |
| 20260905121604 | 25 | 61 | 8.0 | 33.8 | 0.00 | 0.05 | 0.00 | 80 | 1011.5 |
| 20260905121327 | 25 | 45 | 14.5 | 32.2 | 0.00 | 0.05 | 0.00 | 80 | 1011.5 |
| 20260905120315 | 25 | 54 | 19.3 | 30.6 | 0.00 | 0.08 | 0.00 | 79 | 1011.8 |
| 20260905115815 | 25 | 139 | 22.5 | 30.6 | 0.00 | 0.08 | 0.00 | 78 | 1011.8 |
| 20260905115306 | 25 | 100 | 9.7 | 27.4 | 0.00 | 0.08 | 0.00 | 79 | 1011.9 |
| 20260905114803 | 25 | 100 | 12.9 | 27.4 | 0.00 | 0.08 | 0.00 | 79 | 1012.0 |
| 20260905114303 | 25 | 66 | 4.8 | 32.2 | 0.00 | 0.08 | 0.00 | 78 | 1011.9 |
| 20260905113804 | 25 | 84 | 17.7 | 32.2 | 0.00 | 0.08 | 0.00 | 79 | 1012.2 |
| 20260905113304 | 25 | 52 | 6.4 | 30.6 | 0.00 | 0.08 | 0.00 | 81 | 1012.1 |
| 20260905112804 | 25 | 33 | 16.1 | 32.2 | 0.00 | 0.08 | 0.00 | 80 | 1012.2 |
| 20260905112535 | 25 | 91 | 8.0 | 32.2 | 0.00 | 0.08 | 0.00 | 80 | 1011.9 |
| 20260905112254 | 25 | 72 | 12.9 | 32.2 | 0.00 | 0.08 | 0.00 | 79 | 1012.1 |
| 20260905111253 | 25 | 101 | 20.9 | 32.2 | 0.00 | 0.08 | 0.00 | 79 | 1012.3 |
| 20260905110739 | 25 | 74 | 12.9 | 33.8 | 0.00 | 0.08 | 0.00 | 80 | 1012.0 |
| 20260905110240 | 25 | 71 | 14.5 | 37.0 | 0.00 | 0.08 | 0.00 | 79 | 1012.3 |
| 20260905105740 | 25 | 80 | 12.9 | 37.0 | 0.00 | 0.08 | 0.00 | 78 | 1012.3 |
| 20260905105240 | 25 | 98 | 16.1 | 32.2 | 0.00 | 0.08 | 0.00 | 78 | 1012.2 |
| 20260905104739 | 25 | 145 | 14.5 | 46.7 | 0.00 | 0.08 | 0.00 | 78 | 1012.4 |
| 20260905104241 | 25 | 72 | 20.9 | 46.7 | 0.00 | 0.08 | 0.00 | 77 | 1012.2 |
| 20260905103739 | 25 | 112 | 16.1 | 27.4 | 0.00 | 0.08 | 0.00 | 78 | 1012.6 |
| 20260905103242 | 25 | 91 | 20.9 | 32.2 | 0.00 | 0.08 | 0.00 | 79 | 1012.6 |
| 20260905102741 | 25 | 49 | 14.5 | 32.2 | 0.00 | 0.08 | 0.00 | 79 | 1012.5 |
| 20260905102240 | 25 | 73 | 20.9 | 25.7 | 0.00 | 0.08 | 0.00 | 79 | 1012.5 |
| 20260905101739 | 25 | 95 | 12.9 | 27.4 | 0.00 | 0.08 | 0.00 | 79 | 1012.5 |
| 20260905101239 | 25 | 109 | 17.7 | 30.6 | 0.00 | 0.08 | 0.00 | 79 | 1012.4 |
| 20260905100739 | 25 | 62 | 16.1 | 30.6 | 0.00 | 0.08 | 0.00 | 78 | 1012.7 |
| 20260905100239 | 25 | 59 | 22.5 | 30.6 | 0.00 | 0.08 | 0.00 | 79 | 1012.8 |
| 20260905100011 | 25 | 85 | 20.9 | 37.0 | 0.00 | 0.08 | 0.08 | 80 | 1012.8 |
| 20260905095239 | 25 | 99 | 14.5 | 37.0 | 0.00 | 0.08 | 0.08 | 79 | 1012.8 |
| 20260905094740 | 25 | 77 | 12.9 | 30.6 | 0.00 | 0.08 | 0.08 | 80 | 1012.9 |
| 20260905094240 | 25 | 77 | 12.9 | 37.0 | 0.00 | 0.08 | 0.08 | 80 | 1013.1 |
| 20260905093739 | 25 | 54 | 14.5 | 37.0 | 0.00 | 0.08 | 0.08 | 80 | 1013.0 |
| 20260905093239 | 25 | 79 | 20.9 | 37.0 | 0.00 | 0.08 | 0.08 | 78 | 1013.3 |
| 20260905093010 | 25 | 81 | 19.3 | 33.8 | 0.00 | 0.08 | 0.08 | 79 | 1013.1 |
| 20260905092239 | 25 | 19 | 16.1 | 33.8 | 0.00 | 0.08 | 0.08 | 80 | 1013.2 |
| 20260905091739 | 25 | 56 | 24.1 | 30.6 | 0.00 | 0.08 | 0.08 | 79 | 1013.1 |
| 20260905091511 | 25 | 120 | 9.7 | 30.6 | 0.00 | 0.08 | 0.08 | 79 | 1013.0 |
| 20260905090740 | 25 | 106 | 17.7 | 27.4 | 0.00 | 0.08 | 0.08 | 79 | 1013.2 |
| 20260905090241 | 25 | 73 | 12.9 | 37.0 | 0.00 | 0.08 | 0.08 | 78 | 1013.4 |
| 20260905085742 | 25 | 87 | 17.7 | 37.0 | 0.00 | 0.08 | 0.08 | 78 | 1013.5 |
| 20260905085512 | 25 | 89 | 12.9 | 27.4 | 0.00 | 0.08 | 0.08 | 79 | 1013.2 |
| 20260905084740 | 25 | 87 | 9.7 | 27.4 | 0.00 | 0.08 | 0.08 | 79 | 1013.4 |
| 20260905084241 | 25 | 20 | 16.1 | 27.4 | 0.00 | 0.08 | 0.08 | 78 | 1013.4 |
| 20260905083740 | 25 | 98 | 17.7 | 27.4 | 0.00 | 0.08 | 0.08 | 78 | 1013.3 |
| 20260905083240 | 25 | 125 | 17.7 | 27.4 | 0.00 | 0.08 | 0.08 | 78 | 1013.6 |
| 20260905082741 | 25 | 97 | 6.4 | 27.4 | 0.00 | 0.08 | 0.08 | 78 | 1013.6 |
| 20260905082240 | 25 | 98 | 11.3 | 30.6 | 0.00 | 0.08 | 0.08 | 78 | 1013.6 |
| 20260905082010 | 25 | 50 | 16.1 | 33.8 | 0.00 | 0.08 | 0.08 | 77 | 1013.5 |
| 20260905081255 | 25 | 106 | 12.9 | 33.8 | 0.00 | 0.08 | 0.08 | 78 | 1013.5 |
| 20260905080740 | 25 | 98 | 11.3 | 30.6 | 0.00 | 0.10 | 0.08 | 78 | 1013.7 |
| 20260905080240 | 25 | 78 | 12.9 | 32.2 | 0.00 | 0.10 | 0.08 | 78 | 1013.7 |
| 20260905075739 | 25 | 81 | 12.9 | 32.2 | 0.00 | 0.10 | 0.08 | 78 | 1013.8 |
| 20260905075238 | 25 | 81 | 4.8 | 32.2 | 0.00 | 0.10 | 0.08 | 79 | 1013.6 |
| 20260905074734 | 25 | 89 | 9.7 | 33.8 | 0.00 | 0.18 | 0.08 | 78 | 1013.6 |
| 20260905074728 | 25 | 107 | 11.3 | 32.2 | 0.00 | 0.10 | 0.08 | 79 | 1013.5 |
| 20260905073729 | 25 | 61 | 12.9 | 33.8 | 0.00 | 0.18 | 0.08 | 78 | 1013.8 |
| 20260905073227 | 25 | 120 | 19.3 | 32.2 | 0.00 | 0.18 | 0.08 | 78 | 1013.7 |
| 20260905072728 | 25 | 92 | 17.7 | 32.2 | 0.00 | 0.18 | 0.08 | 78 | 1013.6 |
| 20260905072228 | 25 | 77 | 16.1 | 32.2 | 0.00 | 0.18 | 0.08 | 78 | 1013.5 |
| 20260905071728 | 25 | 78 | 11.3 | 32.2 | 0.00 | 0.18 | 0.08 | 78 | 1013.6 |
| 20260905071228 | 25 | 76 | 14.5 | 27.4 | 0.00 | 0.18 | 0.08 | 77 | 1013.7 |
| 20260905070728 | 25 | 87 | 9.7 | 27.4 | 0.00 | 0.18 | 0.08 | 78 | 1013.5 |
| 20260905070227 | 25 | 82 | 8.0 | 27.4 | 0.00 | 0.18 | 0.08 | 78 | 1013.5 |
| 20260905065727 | 25 | 122 | 11.3 | 27.4 | 0.00 | 0.18 | 0.08 | 78 | 1013.5 |
| 20260905065458 | 25 | 59 | 9.7 | 24.1 | 0.00 | 0.18 | 0.08 | 78 | 1013.4 |
| 20260905064728 | 25 | 56 | 12.9 | 25.7 | 0.00 | 0.18 | 0.08 | 78 | 1013.4 |
| 20260905064228 | 25 | 85 | 19.3 | 37.0 | 0.00 | 0.18 | 0.08 | 78 | 1013.2 |
| 20260905063728 | 25 | 64 | 14.5 | 37.0 | 0.00 | 0.18 | 0.08 | 77 | 1013.1 |
| 20260905063501 | 25 | 111 | 12.9 | 27.4 | 0.00 | 0.18 | 0.08 | 77 | 1013.0 |
| 20260905062729 | 25 | 74 | 16.1 | 32.2 | 0.00 | 0.18 | 0.08 | 77 | 1013.1 |
| 20260905062227 | 25 | 75 | 11.3 | 33.8 | 0.00 | 0.18 | 0.08 | 77 | 1013.2 |
| 20260905061728 | 25 | 55 | 9.7 | 33.8 | 0.00 | 0.18 | 0.08 | 76 | 1012.9 |
| 20260905061228 | 25 | 85 | 8.0 | 30.6 | 0.00 | 0.18 | 0.08 | 76 | 1013.0 |
| 20260905060727 | 25 | 97 | 14.5 | 30.6 | 0.00 | 0.18 | 0.08 | 76 | 1012.9 |
| 20260905060227 | 25 | 62 | 17.7 | 27.4 | 0.00 | 0.18 | 0.08 | 76 | 1012.9 |
| 20260905055729 | 25 | 86 | 17.7 | 30.6 | 0.00 | 0.18 | 0.08 | 75 | 1013.0 |
| 20260905055228 | 25 | 82 | 16.1 | 30.6 | 0.00 | 0.18 | 0.08 | 74 | 1013.0 |
| 20260905054728 | 25 | 78 | 11.3 | 27.4 | 0.00 | 0.18 | 0.08 | 74 | 1012.7 |
| 20260905054458 | 25 | 81 | 6.4 | 27.4 | 0.00 | 0.18 | 0.08 | 74 | 1012.7 |
| 20260905053727 | 25 | 59 | 9.7 | 30.6 | 0.00 | 0.18 | 0.08 | 74 | 1012.8 |
| 20260905053228 | 25 | 98 | 17.7 | 30.6 | 0.00 | 0.18 | 0.08 | 74 | 1012.9 |
| 20260905052728 | 25 | 59 | 14.5 | 24.1 | 0.00 | 0.18 | 0.08 | 75 | 1012.7 |
| 20260905052500 | 25 | 119 | 14.5 | 32.2 | 0.00 | 0.18 | 0.08 | 75 | 1012.5 |
| 20260905051729 | 25 | 104 | 17.7 | 32.2 | 0.00 | 0.18 | 0.08 | 75 | 1012.4 |
| 20260905051227 | 25 | 85 | 17.7 | 30.6 | 0.00 | 0.18 | 0.08 | 75 | 1012.2 |
| 20260905050728 | 25 | 127 | 16.1 | 30.6 | 0.00 | 0.18 | 0.08 | 73 | 1012.6 |
| 20260905050227 | 25 | 97 | 9.7 | 30.6 | 0.00 | 0.18 | 0.08 | 71 | 1012.4 |
| 20260905045728 | 25 | 92 | 3.2 | 33.8 | 0.00 | 0.18 | 0.08 | 71 | 1012.3 |
| 20260905045229 | 25 | 82 | 6.4 | 27.4 | 0.00 | 0.18 | 0.08 | 70 | 1012.3 |
| 20260905044727 | 25 | 106 | 14.5 | 32.2 | 0.00 | 0.18 | 0.08 | 72 | 1012.3 |
| 20260905044227 | 25 | 73 | 12.9 | 32.2 | 0.00 | 0.18 | 0.08 | 71 | 1012.1 |
| 20260905043728 | 25 | 57 | 14.5 | 30.6 | 0.00 | 0.18 | 0.08 | 72 | 1012.0 |
| 20260905043228 | 25 | 68 | 8.0 | 25.7 | 0.00 | 0.18 | 0.08 | 71 | 1012.0 |
| 20260905042728 | 25 | 93 | 0.0 | 32.2 | 0.00 | 0.18 | 0.08 | 69 | 1012.0 |
| 20260905042228 | 25 | 109 | 3.2 | 32.2 | 0.00 | 0.18 | 0.08 | 70 | 1011.8 |
| 20260905041727 | 26 | 91 | 14.5 | 25.7 | 0.00 | 0.18 | 0.08 | 71 | 1012.0 |
| 20260905041458 | 26 | 78 | 12.9 | 25.7 | 0.00 | 0.18 | 0.08 | 71 | 1011.7 |
| 20260905041334 | 26 | 113 | 12.9 | 25.7 | 0.00 | 0.18 | 0.08 | 71 | 1011.9 |
| 20260905040459 | 26 | 65 | 9.7 | 30.6 | 0.00 | 0.18 | 0.08 | 71 | 1011.7 |
| 20260905035729 | 26 | 110 | 0.0 | 30.6 | 0.00 | 0.18 | 0.08 | 71 | 1011.6 |
| 20260905035228 | 26 | 112 | 9.7 | 30.6 | 0.00 | 0.18 | 0.08 | 70 | 1011.7 |
| 20260905034728 | 26 | 102 | 0.0 | 25.7 | 0.00 | 0.18 | 0.08 | 69 | 1011.7 |
| 20260905034228 | 26 | 111 | 9.7 | 24.1 | 0.00 | 0.18 | 0.08 | 69 | 1011.6 |
| 20260905034004 | 26 | 85 | 0.0 | 32.2 | 0.00 | 0.18 | 0.08 | 70 | 1011.9 |
| 20260905033228 | 26 | 105 | 11.3 | 32.2 | 0.00 | 0.18 | 0.08 | 69 | 1011.5 |
| 20260905032729 | 26 | 89 | 14.5 | 32.2 | 0.00 | 0.18 | 0.08 | 69 | 1011.6 |
| 20260905032458 | 26 | 110 | 17.7 | 32.2 | 0.00 | 0.18 | 0.08 | 69 | 1011.5 |
| 20260905031728 | 26 | 93 | 9.7 | 27.4 | 0.00 | 0.18 | 0.08 | 66 | 1011.6 |
| 20260905031229 | 26 | 90 | 6.4 | 27.4 | 0.00 | 0.18 | 0.08 | 70 | 1011.7 |
| 20260905030729 | 26 | 68 | 4.8 | 24.1 | 0.00 | 0.18 | 0.08 | 68 | 1011.8 |
| 20260905030228 | 26 | 78 | 3.2 | 27.4 | 0.00 | 0.18 | 0.08 | 68 | 1011.6 |
| 20260905025729 | 26 | 64 | 1.6 | 27.4 | 0.00 | 0.18 | 0.08 | 67 | 1011.8 |
| 20260905025458 | 26 | 61 | 19.3 | 37.0 | 0.00 | 0.18 | 0.08 | 68 | 1011.6 |
| 20260905024728 | 27 | 66 | 3.2 | 37.0 | 0.00 | 0.18 | 0.08 | 67 | 1011.7 |
| 20260905024228 | 27 | 86 | 12.9 | 27.4 | 0.00 | 0.18 | 0.08 | 67 | 1011.8 |
| 20260905023727 | 27 | 104 | 17.7 | 30.6 | 0.00 | 0.18 | 0.08 | 66 | 1011.5 |
| 20260905023229 | 27 | 37 | 9.7 | 32.2 | 0.00 | 0.18 | 0.08 | 65 | 1011.6 |
| 20260905022727 | 27 | 112 | 20.9 | 32.2 | 0.00 | 0.18 | 0.08 | 67 | 1011.6 |
| 20260905022227 | 27 | 72 | 12.9 | 30.6 | 0.00 | 0.18 | 0.08 | 67 | 1011.7 |
| 20260905021727 | 27 | 127 | 20.9 | 27.4 | 0.00 | 0.18 | 0.08 | 67 | 1011.6 |
| 20260905021227 | 27 | 120 | 20.9 | 33.8 | 0.00 | 0.18 | 0.08 | 67 | 1011.6 |
| 20260905020959 | 27 | 150 | 17.7 | 33.8 | 0.00 | 0.18 | 0.08 | 67 | 1011.7 |
| 20260905020228 | 27 | 64 | 14.5 | 27.4 | 0.00 | 0.18 | 0.08 | 66 | 1011.6 |
| 20260905015728 | 27 | 83 | 16.1 | 24.1 | 0.00 | 0.18 | 0.08 | 68 | 1011.6 |
| 20260905015227 | 27 | 96 | 17.7 | 27.4 | 0.00 | 0.18 | 0.08 | 66 | 1011.3 |
| 20260905014727 | 27 | 74 | 17.7 | 27.4 | 0.00 | 0.18 | 0.08 | 67 | 1011.6 |
| 20260905014227 | 27 | 114 | 14.5 | 27.4 | 0.00 | 0.18 | 0.08 | 62 | 1011.6 |
| 20260905013730 | 27 | 21 | 12.9 | 27.4 | 0.00 | 0.18 | 0.08 | 64 | 1011.9 |
| 20260905013229 | 27 | 53 | 12.9 | 38.6 | 0.00 | 0.18 | 0.08 | 63 | 1011.6 |
| 20260905012729 | 27 | 83 | 14.5 | 38.6 | 0.00 | 0.18 | 0.08 | 64 | 1011.5 |
| 20260905012228 | 27 | 106 | 12.9 | 27.4 | 0.00 | 0.18 | 0.08 | 65 | 1011.5 |
| 20260905011729 | 27 | 66 | 17.7 | 25.7 | 0.00 | 0.18 | 0.08 | 64 | 1011.7 |
| 20260905011227 | 27 | 76 | 9.7 | 30.6 | 0.00 | 0.18 | 0.08 | 66 | 1011.7 |
| 20260905010733 | 27 | 74 | 16.1 | 33.8 | 0.00 | 0.18 | 0.08 | 67 | 1011.4 |
| 20260905010728 | 27 | 41 | 12.9 | 30.6 | 0.00 | 0.18 | 0.08 | 65 | 1011.6 |
| 20260905005728 | 28 | 75 | 9.7 | 33.8 | 0.00 | 0.18 | 0.08 | 65 | 1011.7 |
| 20260905005228 | 27 | 93 | 22.5 | 33.8 | 0.00 | 0.18 | 0.08 | 63 | 1011.6 |
| 20260905004728 | 27 | 78 | 16.1 | 33.8 | 0.00 | 0.18 | 0.08 | 64 | 1011.9 |
| 20260905004227 | 27 | 89 | 19.3 | 33.8 | 0.00 | 0.18 | 0.08 | 65 | 1011.4 |
| 20260905003728 | 28 | 77 | 19.3 | 32.2 | 0.00 | 0.18 | 0.08 | 62 | 1011.7 |
| 20260905003228 | 27 | 51 | 20.9 | 40.2 | 0.00 | 0.18 | 0.08 | 66 | 1011.7 |
| 20260905002958 | 28 | 78 | 20.9 | 32.2 | 0.00 | 0.18 | 0.08 | 64 | 1011.7 |
| 20260905002228 | 27 | 95 | 17.7 | 33.8 | 0.00 | 0.18 | 0.08 | 63 | 1011.8 |
| 20260905001729 | 28 | 85 | 17.7 | 33.8 | 0.00 | 0.18 | 0.08 | 65 | 1012.1 |
| 20260905001227 | 28 | 99 | 20.9 | 38.6 | 0.00 | 0.18 | 0.08 | 65 | 1011.9 |
| 20260905000727 | 28 | 97 | 12.9 | 38.6 | 0.00 | 0.18 | 0.08 | 65 | 1012.0 |
| 20260905000501 | 28 | 107 | 17.7 | 33.8 | 0.00 | 0.18 | 0.08 | 64 | 1012.2 |
| 20260904235727 | 28 | 116 | 14.5 | 33.8 | 0.00 | 0.18 | 0.08 | 65 | 1012.4 |
| 20260904235228 | 28 | 105 | 17.7 | 37.0 | 0.00 | 0.18 | 0.08 | 64 | 1012.4 |
| 20260904234728 | 28 | 70 | 20.9 | 37.0 | 0.00 | 0.18 | 0.08 | 63 | 1012.5 |
| 20260904234228 | 28 | 112 | 17.7 | 32.2 | 0.00 | 0.18 | 0.08 | 64 | 1012.6 |
| 20260904233959 | 28 | 83 | 19.3 | 38.6 | 0.00 | 0.18 | 0.08 | 63 | 1012.7 |
| 20260904233228 | 28 | 91 | 20.9 | 38.6 | 0.00 | 0.18 | 0.08 | 62 | 1012.7 |
| 20260904232959 | 28 | 89 | 24.1 | 33.8 | 0.00 | 0.18 | 0.08 | 63 | 1013.0 |
| 20260904232228 | 28 | 90 | 14.5 | 41.8 | 0.00 | 0.18 | 0.08 | 64 | 1012.7 |
| 20260904231733 | 28 | 83 | 20.9 | 38.6 | 0.00 | 0.18 | 0.08 | 67 | 1013.0 |
| 20260904231727 | 28 | 99 | 17.7 | 41.8 | 0.00 | 0.18 | 0.08 | 66 | 1013.0 |
| 20260904230727 | 28 | 99 | 12.9 | 38.6 | 0.00 | 0.18 | 0.08 | 70 | 1012.9 |
| 20260904230227 | 28 | 86 | 20.9 | 37.0 | 0.00 | 0.18 | 0.08 | 69 | 1012.9 |
| 20260904225728 | 28 | 52 | 14.5 | 37.0 | 0.00 | 0.18 | 0.08 | 68 | 1012.9 |
| 20260904225234 | 27 | 122 | 19.3 | 40.2 | 0.00 | 0.18 | 0.08 | 69 | 1013.0 |
| 20260904225228 | 28 | 84 | 17.7 | 40.2 | 0.00 | 0.18 | 0.08 | 69 | 1013.0 |
| 20260904224229 | 28 | 132 | 19.3 | 37.0 | 0.00 | 0.18 | 0.08 | 67 | 1013.1 |
| 20260904223727 | 28 | 77 | 12.9 | 38.6 | 0.00 | 0.18 | 0.08 | 68 | 1013.1 |
| 20260904223227 | 28 | 104 | 16.1 | 38.6 | 0.00 | 0.18 | 0.08 | 68 | 1013.2 |
| 20260904222727 | 28 | 61 | 12.9 | 37.0 | 0.00 | 0.18 | 0.08 | 68 | 1013.7 |
| 20260904222229 | 28 | 102 | 20.9 | 40.2 | 0.00 | 0.18 | 0.08 | 69 | 1013.1 |
| 20260904221727 | 27 | 96 | 20.9 | 41.8 | 0.00 | 0.18 | 0.08 | 70 | 1013.5 |
| 20260904221228 | 27 | 102 | 20.9 | 41.8 | 0.00 | 0.18 | 0.08 | 69 | 1013.3 |
| 20260904220728 | 28 | 77 | 16.1 | 38.6 | 0.00 | 0.18 | 0.08 | 68 | 1013.4 |
| 20260904220228 | 28 | 71 | 24.1 | 41.8 | 0.00 | 0.18 | 0.08 | 68 | 1013.5 |
| 20260904215729 | 28 | 79 | 19.3 | 41.8 | 0.00 | 0.18 | 0.08 | 69 | 1013.5 |
| 20260904215228 | 28 | 53 | 14.5 | 37.0 | 0.00 | 0.18 | 0.08 | 71 | 1013.5 |
| 20260904214728 | 28 | 102 | 22.5 | 37.0 | 0.00 | 0.18 | 0.08 | 71 | 1013.5 |
| 20260904214227 | 27 | 83 | 25.7 | 37.0 | 0.00 | 0.18 | 0.08 | 70 | 1013.6 |
| 20260904213727 | 27 | 93 | 25.7 | 46.7 | 0.00 | 0.18 | 0.08 | 71 | 1013.6 |
| 20260904213227 | 27 | 79 | 30.6 | 41.8 | 0.00 | 0.18 | 0.08 | 71 | 1013.2 |
| 20260904212729 | 27 | 75 | 22.5 | 41.8 | 0.00 | 0.18 | 0.08 | 72 | 1013.8 |
| 20260904212228 | 27 | 84 | 22.5 | 41.8 | 0.00 | 0.18 | 0.08 | 72 | 1013.6 |
| 20260904211729 | 27 | 46 | 12.9 | 41.8 | 0.00 | 0.18 | 0.08 | 72 | 1013.6 |
| 20260904211228 | 27 | 120 | 20.9 | 38.6 | 0.00 | 0.18 | 0.08 | 71 | 1013.6 |
| 20260904210727 | 27 | 84 | 22.5 | 38.6 | 0.00 | 0.18 | 0.08 | 71 | 1013.6 |
| 20260904210228 | 27 | 79 | 17.7 | 33.8 | 0.00 | 0.18 | 0.08 | 71 | 1014.0 |
| 20260904205727 | 27 | 72 | 17.7 | 37.0 | 0.00 | 0.18 | 0.08 | 72 | 1014.0 |
| 20260904205227 | 27 | 93 | 17.7 | 41.8 | 0.00 | 0.18 | 0.08 | 70 | 1013.6 |
| 20260904204728 | 27 | 59 | 25.7 | 41.8 | 0.00 | 0.18 | 0.08 | 71 | 1013.7 |
| 20260904204500 | 27 | 65 | 19.3 | 38.6 | 0.00 | 0.18 | 0.08 | 72 | 1013.9 |
| 20260904204336 | 27 | 77 | 19.3 | 33.8 | 0.00 | 0.18 | 0.08 | 73 | 1013.7 |
| 20260904203458 | 27 | 47 | 19.3 | 37.0 | 0.00 | 0.18 | 0.08 | 73 | 1013.7 |
| 20260904202727 | 26 | 84 | 20.9 | 37.0 | 0.00 | 0.18 | 0.08 | 71 | 1013.8 |
| 20260904202229 | 27 | 70 | 22.5 | 37.0 | 0.00 | 0.18 | 0.08 | 73 | 1013.8 |
| 20260904201959 | 27 | 87 | 17.7 | 37.0 | 0.00 | 0.18 | 0.08 | 74 | 1013.5 |
| 20260904201228 | 27 | 84 | 19.3 | 37.0 | 0.00 | 0.18 | 0.08 | 73 | 1013.7 |
| 20260904200730 | 26 | 88 | 14.5 | 37.0 | 0.00 | 0.18 | 0.08 | 73 | 1013.5 |
| 20260904200228 | 26 | 62 | 12.9 | 40.2 | 0.00 | 0.18 | 0.08 | 74 | 1013.5 |
| 20260904200001 | 26 | 69 | 27.4 | 40.2 | 0.00 | 0.18 | 0.08 | 73 | 1013.4 |
| 20260904195228 | 26 | 85 | 14.5 | 38.6 | 0.00 | 0.18 | 0.08 | 74 | 1013.6 |
| 20260904194727 | 26 | 84 | 17.7 | 33.8 | 0.00 | 0.18 | 0.08 | 74 | 1013.5 |
| 20260904194227 | 26 | 109 | 20.9 | 33.8 | 0.00 | 0.18 | 0.08 | 75 | 1013.5 |
| 20260904193727 | 26 | 40 | 14.5 | 45.1 | 0.00 | 0.18 | 0.08 | 74 | 1013.4 |
| 20260904193227 | 26 | 77 | 22.5 | 45.1 | 0.00 | 0.18 | 0.08 | 74 | 1013.5 |
| 20260904192727 | 26 | 78 | 14.5 | 40.2 | 0.00 | 0.18 | 0.08 | 74 | 1013.6 |
| 20260904192228 | 26 | 52 | 20.9 | 40.2 | 0.00 | 0.18 | 0.08 | 74 | 1013.6 |
| 20260904191728 | 26 | 65 | 29.0 | 41.8 | 0.00 | 0.18 | 0.08 | 73 | 1013.5 |
| 20260904191228 | 26 | 81 | 27.4 | 41.8 | 0.00 | 0.18 | 0.08 | 73 | 1013.9 |
| 20260904190727 | 26 | 95 | 14.5 | 45.1 | 0.00 | 0.18 | 0.08 | 72 | 1013.7 |
| 20260904190459 | 26 | 67 | 20.9 | 45.1 | 0.00 | 0.18 | 0.08 | 73 | 1013.5 |
| 20260904185959 | 26 | 92 | 17.7 | 37.0 | 0.00 | 0.18 | 0.08 | 72 | 1013.6 |
| 20260904185227 | 26 | 74 | 20.9 | 37.0 | 0.00 | 0.18 | 0.08 | 74 | 1013.5 |
| 20260904184727 | 25 | 65 | 17.7 | 37.0 | 0.00 | 0.18 | 0.08 | 76 | 1013.6 |
| 20260904184227 | 25 | 103 | 9.7 | 40.2 | 0.00 | 0.18 | 0.08 | 76 | 1013.4 |
| 20260904183727 | 25 | 82 | 17.7 | 40.2 | 0.00 | 0.18 | 0.08 | 75 | 1013.6 |
| 20260904183227 | 25 | 51 | 25.7 | 38.6 | 0.00 | 0.18 | 0.08 | 76 | 1013.4 |
| 20260904182727 | 25 | 69 | 17.7 | 38.6 | 0.00 | 0.18 | 0.08 | 77 | 1013.7 |
| 20260904182228 | 25 | 80 | 17.7 | 32.2 | 0.00 | 0.18 | 0.08 | 76 | 1013.2 |
| 20260904181728 | 25 | 69 | 17.7 | 40.2 | 0.00 | 0.18 | 0.08 | 76 | 1013.4 |
| 20260904181227 | 25 | 94 | 25.7 | 40.2 | 0.00 | 0.18 | 0.08 | 75 | 1013.2 |
| 20260904180727 | 25 | 61 | 17.7 | 38.6 | 0.00 | 0.18 | 0.08 | 77 | 1013.1 |
| 20260904180228 | 25 | 73 | 22.5 | 38.6 | 0.00 | 0.18 | 0.08 | 78 | 1013.1 |
| 20260904180107 | 25 | 68 | 20.9 | 41.8 | 0.00 | 0.18 | 0.08 | 77 | 1013.3 |
| 20260904175959 | 25 | 86 | 22.5 | 41.8 | 0.00 | 0.18 | 0.08 | 79 | 1013.3 |
| 20260904174727 | 25 | 81 | 17.7 | 38.6 | 0.00 | 0.18 | 0.08 | 79 | 1013.2 |
| 20260904174228 | 25 | 103 | 12.9 | 40.2 | 0.00 | 0.18 | 0.08 | 80 | 1013.3 |
| 20260904173728 | 24 | 113 | 12.9 | 40.2 | 0.00 | 0.18 | 0.08 | 80 | 1013.3 |
| 20260904173227 | 24 | 63 | 30.6 | 37.0 | 0.00 | 0.18 | 0.08 | 81 | 1013.0 |
| 20260904172727 | 24 | 113 | 14.5 | 33.8 | 0.00 | 0.18 | 0.08 | 81 | 1013.1 |
| 20260904172459 | 24 | 97 | 8.0 | 32.2 | 0.00 | 0.18 | 0.08 | 80 | 1013.1 |
| 20260904171959 | 24 | 95 | 20.9 | 45.1 | 0.00 | 0.18 | 0.08 | 81 | 1013.0 |
| 20260904171229 | 24 | 58 | 16.1 | 45.1 | 0.00 | 0.18 | 0.08 | 82 | 1012.9 |
| 20260904170728 | 24 | 59 | 16.1 | 33.8 | 0.00 | 0.18 | 0.08 | 83 | 1012.8 |
| 20260904170459 | 24 | 105 | 12.9 | 33.8 | 0.00 | 0.18 | 0.08 | 83 | 1012.8 |
| 20260904165728 | 24 | 109 | 8.0 | 33.8 | 0.00 | 0.18 | 0.08 | 80 | 1012.6 |
| 20260904165228 | 24 | 101 | 12.9 | 33.8 | 0.00 | 0.18 | 0.08 | 79 | 1012.8 |
| 20260904164728 | 24 | 64 | 14.5 | 33.8 | 0.00 | 0.18 | 0.08 | 79 | 1012.6 |
| 20260904164229 | 24 | 93 | 14.5 | 27.4 | 0.03 | 0.18 | 0.08 | 79 | 1012.7 |
| 20260904163733 | 24 | 128 | 17.7 | 30.6 | 0.03 | 0.18 | 0.08 | 79 | 1012.5 |
| 20260904163728 | 24 | 131 | 9.7 | 27.4 | 0.03 | 0.18 | 0.08 | 79 | 1012.5 |
| 20260904162728 | 23 | 106 | 11.3 | 37.0 | 0.03 | 0.18 | 0.08 | 80 | 1012.8 |
| 20260904162500 | 23 | 110 | 12.9 | 37.0 | 0.03 | 0.18 | 0.08 | 83 | 1012.7 |
| 20260904161728 | 23 | 73 | 17.7 | 38.6 | 0.03 | 0.18 | 0.08 | 84 | 1012.6 |
| 20260904161233 | 23 | 96 | 17.7 | 38.6 | 0.03 | 0.20 | 0.08 | 85 | 1012.7 |
| 20260904161229 | 23 | 81 | 17.7 | 27.4 | 0.03 | 0.20 | 0.08 | 86 | 1012.6 |
| 20260904160227 | 23 | 90 | 17.7 | 32.2 | 0.03 | 0.20 | 0.08 | 86 | 1012.6 |
| 20260904155727 | 23 | 115 | 14.5 | 32.2 | 0.03 | 0.20 | 0.08 | 86 | 1012.8 |
| 20260904155228 | 23 | 109 | 12.9 | 40.2 | 0.03 | 0.20 | 0.08 | 86 | 1012.5 |
| 20260904154728 | 24 | 118 | 12.9 | 40.2 | 0.03 | 0.18 | 0.08 | 84 | 1012.8 |
| 20260904154228 | 25 | 91 | 19.3 | 33.8 | 0.00 | 0.18 | 0.05 | 83 | 1012.5 |
| 20260904153728 | 25 | 126 | 6.4 | 27.4 | 0.00 | 0.18 | 0.05 | 81 | 1012.3 |
| 20260904153227 | 25 | 71 | 14.5 | 33.8 | 0.00 | 0.18 | 0.05 | 81 | 1012.3 |
| 20260904152727 | 25 | 116 | 14.5 | 33.8 | 0.00 | 0.18 | 0.05 | 81 | 1012.3 |
| 20260904152228 | 24 | 94 | 12.9 | 27.4 | 0.00 | 0.18 | 0.05 | 82 | 1012.5 |
| 20260904151728 | 24 | 98 | 6.4 | 30.6 | 0.00 | 0.18 | 0.05 | 82 | 1012.7 |
| 20260904151228 | 24 | 79 | 8.0 | 30.6 | 0.00 | 0.18 | 0.05 | 83 | 1012.6 |
| 20260904150727 | 23 | 136 | 8.0 | 27.4 | 0.00 | 0.18 | 0.05 | 84 | 1012.6 |
| 20260904150227 | 23 | 110 | 11.3 | 25.7 | 0.00 | 0.18 | 0.05 | 87 | 1012.6 |
| 20260904145959 | 23 | 48 | 11.3 | 17.7 | 0.00 | 0.18 | 0.05 | 87 | 1012.5 |
| 20260904145458 | 23 | 117 | 11.3 | 17.7 | 0.00 | 0.18 | 0.05 | 87 | 1012.6 |
| 20260904144728 | 23 | 100 | 6.4 | 16.1 | 0.00 | 0.18 | 0.05 | 87 | 1012.6 |
| 20260904144459 | 23 | 106 | 6.4 | 20.9 | 0.00 | 0.18 | 0.05 | 86 | 1012.5 |
| 20260904143727 | 23 | 108 | 8.0 | 25.7 | 0.00 | 0.18 | 0.05 | 86 | 1012.7 |
| 20260904143228 | 23 | 69 | 11.3 | 38.6 | 0.00 | 0.18 | 0.05 | 85 | 1012.6 |
| 20260904142729 | 23 | 114 | 17.7 | 38.6 | 0.00 | 0.18 | 0.05 | 85 | 1012.6 |
| 20260904142227 | 23 | 135 | 12.9 | 38.6 | 0.00 | 0.18 | 0.05 | 85 | 1012.7 |
| 20260904141727 | 24 | 122 | 17.7 | 32.2 | 0.00 | 0.18 | 0.05 | 84 | 1012.3 |
| 20260904141500 | 24 | 104 | 8.0 | 32.2 | 0.00 | 0.18 | 0.05 | 82 | 1012.4 |
| 20260904140728 | 24 | 98 | 9.7 | 27.4 | 0.00 | 0.18 | 0.05 | 82 | 1012.5 |
| 20260904140227 | 23 | 97 | 12.9 | 30.6 | 0.00 | 0.18 | 0.05 | 83 | 1012.5 |